KD5NDU-15 Weather Reports


time (UTC)temp
C
wind
direction
speed
KPH
gust
KPH
rain 1hr
cm
rain 24hr
cm
rain mn
cm
humidity
%
barometer
mb
20260507160040 18 28 3.2 9.7 0.00 0.00 0.00 68 1014.4
20260507155614 18 0 3.2 6.4 0.00 0.00 0.00 72 1014.7
20260507155046 18 97 3.2 9.7 0.00 0.00 0.00 72 1014.5
20260507154542 18 69 3.2 8.0 0.00 0.00 0.00 73 1014.3
20260507154040 17 179 3.2 8.0 0.00 0.00 0.00 72 1014.7
20260507153544 17 303 3.2 8.0 0.00 0.00 0.00 75 1014.6
20260507153040 17 11 3.2 11.3 0.00 0.00 0.00 74 1014.8
20260507152542 17 136 3.2 12.9 0.00 0.00 0.00 75 1014.8
20260507152133 17 359 3.2 9.7 0.00 0.00 0.00 74 1014.8
20260507151550 17 6 3.2 8.0 0.00 0.00 0.00 76 1014.8
20260507151109 17 0 3.2 9.7 0.00 0.00 0.00 77 1014.8
20260507150546 17 11 1.6 6.4 0.00 0.00 0.00 77 1014.8
20260507150046 17 324 1.6 6.4 0.00 0.00 0.00 79 1014.8
20260507145549 16 354 3.2 6.4 0.00 0.00 0.00 81 1014.7
20260507145139 16 29 3.2 6.4 0.00 0.00 0.00 82 1014.8
20260507144540 16 213 3.2 12.9 0.00 0.00 0.00 79 1014.6
20260507144131 15 0 1.6 6.4 0.00 0.00 0.00 82 1014.8
20260507143550 15 63 3.2 6.4 0.00 0.00 0.00 85 1014.8
20260507143045 15 351 1.6 6.4 0.00 0.00 0.00 86 1014.8
20260507142559 15 39 1.6 9.7 0.00 0.00 0.00 85 1014.8
20260507142110 15 115 1.6 6.4 0.00 0.00 0.00 89 1014.7
20260507141221 13 61 1.6 8.0 0.00 0.00 0.00 90 1014.5
20260507140602 13 62 1.6 8.0 0.00 0.00 0.00 90 1014.3
20260507140042 13 0 3.2 4.8 0.00 0.00 0.00 90 1014.2
20260507135040 13 49 1.6 11.3 0.00 0.00 0.00 94 1014.0
20260507134114 12 5 1.6 9.7 0.00 0.00 0.00 95 1014.0
20260507133150 12 359 1.6 6.4 0.00 0.00 0.00 97 1014.2
20260507133044 12 359 1.6 6.4 0.00 0.00 0.00 97 1014.2
20260507132543 12 136 1.6 4.8 0.00 0.00 0.00 99 1014.0
20260507132055 12 323 1.6 4.8 0.00 0.00 0.00 99 1014.0
20260507131545 12 18 1.6 4.8 0.00 0.00 0.00 99 1013.8
20260507131045 12 30 1.6 4.8 0.00 0.00 0.00 100 1013.6
20260507130607 11 39 1.6 8.0 0.00 0.00 0.00 100 1013.3
20260507130044 11 11 1.6 4.8 0.00 0.00 0.00 100 1013.4
20260507125542 11 25 1.6 4.8 0.00 0.00 0.00 100 1013.5
20260507125040 11 12 1.6 4.8 0.00 0.00 0.00 100 1013.4
20260507124540 11 359 410.4 3.2 0.00 0.00 0.00 100 1013.4
20260507124040 11 352 410.4 410.4 0.00 0.00 0.00 100 1013.4
20260507123612 -17 767 410.4 410.4 0.00 0.00 0.00
20260507123541 -17 767 410.4 410.4 0.00 0.00 0.00
20260507123054 -17 767 410.4 410.4 0.00 0.00 0.00
20260506235647 13 63 0.0 3.2 0.13 0.13 0.13 97 1010.0
20260506235147 13 106 0.0 3.2 0.13 0.13 0.13 96 1010.2
20260506234647 14 65 0.0 6.4 0.13 0.13 0.13 96 1010.1
20260506234147 14 22 0.0 1.6 0.10 0.10 0.10 96 1010.2
20260506233647 14 22 0.0 4.8 0.10 0.10 0.10 96 1010.2
20260506233147 14 26 0.0 3.2 0.10 0.10 0.10 96 1010.3
20260506232647 14 83 0.0 0.0 0.00 0.00 0.00 95 1010.6
20260506232147 14 84 0.0 1.6 0.00 0.00 0.00 95 1010.6
20260506231647 14 89 0.0 3.2 0.00 0.00 0.00 95 1010.7
20260506231147 14 89 0.0 3.2 0.00 0.00 0.00 94 1010.8
20260506230647 14 12 0.0 1.6 0.00 0.00 0.00 95 1010.6
20260506230147 14 43 0.0 3.2 0.00 0.00 0.00 94 1010.6
20260506225647 14 60 0.0 3.2 0.00 0.00 0.00 94 1010.6
20260506225147 14 57 0.0 1.6 0.00 0.00 0.00 94 1010.7
20260506224647 14 61 0.0 4.8 0.00 0.00 0.00 94 1010.5
20260506224147 14 39 0.0 1.6 0.00 0.00 0.00 94 1010.4
20260506223647 14 71 1.6 4.8 0.00 0.00 0.00 94 1010.4
20260506223147 14 136 1.6 4.8 0.00 0.00 0.00 94 1010.3
20260506222647 14 268 1.6 4.8 0.00 0.00 0.00 95 1010.0
20260506222147 14 68 1.6 6.4 0.00 0.00 0.00 95 1009.6
20260506221647 14 23 1.6 8.0 0.00 0.00 0.00 94 1009.4
20260506221147 13 359 1.6 9.7 0.00 0.00 0.00 95 1009.6
20260506220651 13 260 0.0 3.2 0.00 0.00 0.00 95 1009.7
20260506220147 13 32 1.6 4.8 0.00 0.00 0.00 96 1009.3
20260506215647 13 25 1.6 8.0 0.00 0.00 0.00 95 1009.7
20260506215147 13 89 1.6 6.4 0.00 0.00 0.00 95 1009.6
20260506214647 13 161 1.6 6.4 0.00 0.00 0.00 96 1010.2
20260506214149 13 20 1.6 3.2 0.00 0.00 0.00 97 1010.6
20260506213657 13 166 3.2 4.8 0.00 0.00 0.00 96 1010.6
20260506213147 13 30 3.2 6.4 0.00 0.00 0.00 96 1010.8
20260506212647 13 348 1.6 8.0 0.00 0.00 0.00 97 1010.7
20260506212147 13 8 1.6 3.2 0.00 0.00 0.00 96 1010.7
20260506211647 13 12 1.6 4.8 0.00 0.00 0.00 96 1011.0
20260506211147 13 272 1.6 4.8 0.00 0.00 0.00 96 1011.2
20260506210648 14 354 3.2 6.4 0.00 0.00 0.00 96 1011.3
20260506210149 14 20 1.6 6.4 0.00 0.00 0.00 96 1011.2
20260506205648 14 304 3.2 4.8 0.00 0.00 0.00 96 1011.1
20260506205152 15 23 3.2 6.4 0.00 0.00 0.00 95 1011.0
20260506204648 15 28 4.8 6.4 0.00 0.00 0.00 94 1011.2
20260506204148 15 7 3.2 6.4 0.00 0.00 0.00 94 1011.0
20260506203648 15 359 1.6 6.4 0.00 0.00 0.00 94 1011.0
20260506203150 15 356 1.6 3.2 0.00 0.00 0.00 94 1010.8
20260506202648 15 0 1.6 4.8 0.00 0.00 0.00 94 1010.4
20260506202150 15 47 1.6 3.2 0.00 0.00 0.00 94 1010.3
20260506201716 15 1 1.6 3.2 0.00 0.00 0.00 94 1010.3
20260506201148 15 9 1.6 3.2 0.00 0.00 0.00 94 1010.2
20260506200702 15 9 1.6 3.2 0.00 0.00 0.00 94 1010.2
20260506200150 15 358 1.6 3.2 0.00 0.00 0.00 94 1010.3
20260506195650 15 309 1.6 4.8 0.00 0.00 0.00 95 1010.3
20260506195148 15 25 1.6 4.8 0.00 0.00 0.00 94 1010.3
20260506194648 16 355 1.6 8.0 0.00 0.00 0.00 94 1010.6
20260506194148 16 7 1.6 8.0 0.00 0.00 0.00 94 1010.5
20260506193648 16 30 1.6 4.8 0.00 0.00 0.00 95 1010.6
20260506193150 16 13 1.6 3.2 0.00 0.00 0.00 95 1010.6
20260506192648 16 13 1.6 8.0 0.00 0.00 0.00 94 1010.7
20260506192148 16 359 1.6 4.8 0.00 0.00 0.00 95 1010.7
20260506191650 16 302 1.6 3.2 0.00 0.00 0.00 95 1010.8
20260506191148 16 3 1.6 3.2 0.00 0.00 0.00 94 1010.6
20260506190648 16 342 1.6 4.8 0.00 0.00 0.00 94 1010.6
20260506190148 16 352 1.6 3.2 0.00 0.00 0.00 95 1010.6
20260506185716 16 331 1.6 3.2 0.00 0.00 0.00 94 1010.7
20260506185152 16 5 1.6 3.2 0.00 0.00 0.00 94 1010.6
20260506184648 16 6 0.0 3.2 0.00 0.00 0.00 95 1010.6
20260506184151 16 18 1.6 1.6 0.00 0.00 0.00 96 1010.3
20260506183715 16 18 1.6 3.2 0.00 0.00 0.00 95 1010.3
20260506183148 16 20 1.6 4.8 0.00 0.00 0.00 95 1010.3
20260506182648 16 6 1.6 3.2 0.00 0.00 0.00 95 1010.6
20260506182148 16 16 1.6 4.8 0.00 0.00 0.00 96 1010.6
20260506181648 16 4 1.6 3.2 0.00 0.00 0.00 95 1010.6
20260506181148 16 359 1.6 4.8 0.00 0.00 0.00 95 1010.8
20260506180650 16 11 1.6 4.8 0.00 0.00 0.00 95 1010.7
20260506180148 16 295 1.6 4.8 0.00 0.00 0.00 95 1010.6
20260506175648 16 259 1.6 4.8 0.00 0.00 0.00 95 1010.6
20260506175150 16 1 1.6 3.2 0.00 0.00 0.00 95 1010.4
20260506174648 16 319 1.6 1.6 0.00 0.00 0.00 97 1010.6
20260506174148 16 318 1.6 3.2 0.00 0.00 0.00 96 1010.5
20260506173652 16 20 1.6 4.8 0.00 0.00 0.00 96 1010.7
20260506173148 16 359 1.6 3.2 0.00 0.00 0.00 96 1010.8
20260506172648 16 12 1.6 4.8 0.00 0.00 0.00 96 1010.8
20260506172148 16 20 1.6 3.2 0.00 0.00 0.00 96 1010.8
20260506171652 16 15 1.6 3.2 0.00 0.00 0.00 96 1010.9
20260506171152 16 28 1.6 4.8 0.00 0.00 0.00 96 1010.7
20260506170648 16 22 1.6 4.8 0.00 0.00 0.00 96 1010.6
20260506170148 16 359 1.6 3.2 0.00 0.00 0.00 96 1010.5
20260506165648 16 46 1.6 4.8 0.00 0.00 0.00 96 1010.5
20260506165148 16 1 3.2 4.8 0.00 0.00 0.00 96 1010.5
20260506164648 16 1 3.2 4.8 0.00 0.00 0.00 95 1010.5
20260506164214 17 4 1.6 4.8 0.00 0.00 0.00 95 1010.4
20260506163650 17 1 1.6 3.2 0.00 0.00 0.00 96 1010.3
20260506163148 17 1 1.6 3.2 0.00 0.00 0.00 96 1010.3
20260506162648 17 11 1.6 3.2 0.00 0.00 0.00 97 1010.4
20260506162148 18 12 1.6 3.2 0.00 0.00 0.00 97 1010.1
20260506161648 18 13 1.6 3.2 0.00 0.00 0.00 97 1010.0
20260506161157 18 15 1.6 3.2 0.00 0.00 0.00 97 1009.9
20260506160648 18 15 1.6 3.2 0.00 0.00 0.00 97 1009.9